GW2192 Weather Reports


time (UTC)temp
F
wind
direction
speed
knots
gust
knots
rain 1hr
in
rain 24hr
in
rain mn
in
humidity
%
barometer
mb
20260508044017 56 0 0.0 0.0 0.00 0.00 0.00 24 1016.5
20260508043515 56 0 0.0 0.0 0.00 0.00 0.00 24 1016.5
20260508043034 57 0 0.0 0.0 0.00 0.00 0.00 24 1016.4
20260508042516 57 0 0.0 0.0 0.00 0.00 0.00 23 1016.4
20260508042015 58 0 0.0 0.0 0.00 0.00 0.00 21 1016.4
20260508041536 59 0 0.0 0.0 0.00 0.00 0.00 20 1016.4
20260508041019 59 0 0.0 0.0 0.00 0.00 0.00 19 1016.3
20260508040519 60 0 0.0 0.0 0.00 0.00 0.00 19 1016.3
20260508040049 61 0 0.0 0.0 0.00 0.00 0.00 19 1016.4
20260508035519 62 0 0.0 0.9 0.00 0.00 0.00 17 1016.2
20260508035023 62 0 0.0 0.9 0.00 0.00 0.00 16 1016.2
20260508034540 62 0 0.0 0.9 0.00 0.00 0.00 15 1016.2
20260508034016 63 0 0.0 2.6 0.00 0.00 0.00 14 1016.2
20260508033515 63 0 0.0 2.6 0.00 0.00 0.00 14 1016.0
20260508033032 63 0 0.0 1.7 0.00 0.00 0.00 14 1016.0
20260508032516 63 0 0.0 0.9 0.00 0.00 0.00 14 1015.8
20260508032021 63 0 0.0 0.9 0.00 0.00 0.00 14 1015.7
20260508031533 63 0 0.0 1.7 0.00 0.00 0.00 14 1015.7
20260508031018 64 0 0.0 1.7 0.00 0.00 0.00 14 1015.6
20260508030518 64 0 0.0 1.7 0.00 0.00 0.00 17 1015.5
20260508030034 64 0 0.0 1.7 0.00 0.00 0.00 19 1015.5
20260508025519 65 0 0.0 1.7 0.00 0.00 0.00 18 1015.5
20260508025015 66 0 0.0 0.9 0.00 0.00 0.00 20 1015.4
20260508024538 66 0 0.0 1.7 0.00 0.00 0.00 19 1015.3
20260508024020 66 0 0.0 1.7 0.00 0.00 0.00 17 1015.3
20260508023519 67 0 0.0 1.7 0.00 0.00 0.00 18 1015.2
20260508023034 67 0 0.0 1.7 0.00 0.00 0.00 17 1015.1
20260508022518 68 128 0.0 1.7 0.00 0.00 0.00 18 1015.1
20260508022019 68 0 0.0 2.6 0.00 0.00 0.00 18 1015.0
20260508021534 69 0 0.0 2.6 0.00 0.00 0.00 17 1014.9
20260508021018 69 125 0.9 2.6 0.00 0.00 0.00 16 1014.8
20260508020521 69 147 0.0 2.6 0.00 0.00 0.00 16 1014.7
20260508020034 69 0 0.0 2.6 0.00 0.00 0.00 17 1014.8
20260508015516 70 0 0.0 0.0 0.00 0.00 0.00 18 1014.7
20260508015018 71 0 0.0 0.0 0.00 0.00 0.00 18 1014.7
20260508014531 71 0 0.0 0.9 0.00 0.00 0.00 18 1014.6
20260508014018 72 0 0.0 0.9 0.00 0.00 0.00 18 1014.6
20260508013516 72 0 0.0 2.6 0.00 0.00 0.00 15 1014.5
20260508013037 72 0 0.0 4.3 0.00 0.00 0.00 15 1014.3
20260508012519 73 0 0.9 6.1 0.00 0.00 0.00 14 1014.3
20260508012016 74 171 0.9 6.1 0.00 0.00 0.00 13 1014.1
20260508011534 74 0 0.9 7.8 0.00 0.00 0.00 14 1014.2
20260508011016 74 184 0.9 7.8 0.00 0.00 0.00 14 1014.1
20260508010516 74 138 1.7 6.1 0.00 0.00 0.00 14 1014.0
20260508010033 74 115 0.9 7.8 0.00 0.00 0.00 13 1014.0
20260508005515 74 137 0.9 7.8 0.00 0.00 0.00 13 1014.0
20260508005016 74 138 1.7 6.1 0.00 0.00 0.00 13 1014.0
20260508004535 74 0 1.7 7.8 0.00 0.00 0.00 13 1014.0
20260508004016 74 0 2.6 7.8 0.00 0.00 0.00 12 1014.0
20260508003521 75 133 1.7 7.8 0.00 0.00 0.00 14 1014.0
20260508003035 75 134 1.7 4.3 0.00 0.00 0.00 12 1014.0
20260508002519 75 142 0.9 6.1 0.00 0.00 0.00 12 1014.0
20260508002019 75 130 1.7 6.1 0.00 0.00 0.00 12 1014.1
20260508001532 75 146 0.9 6.1 0.00 0.00 0.00 12 1014.0
20260508001019 75 150 1.7 7.0 0.00 0.00 0.00 12 1014.1
20260508000519 76 143 0.9 7.0 0.00 0.00 0.00 13 1014.0
20260508000034 75 134 0.9 7.0 0.00 0.00 0.00 12 1014.1
20260507235517 75 160 0.9 8.7 0.00 0.00 0.00 11 1014.0
20260507235015 75 149 3.5 8.7 0.00 0.00 0.00 11 1014.1
20260507234547 75 128 2.6 9.6 0.00 0.00 0.00 10 1014.1
20260507234015 75 161 0.9 9.6 0.00 0.00 0.00 12 1014.3
20260507233515 76 152 2.6 6.1 0.00 0.00 0.00 11 1014.3
20260507233039 76 34 1.7 7.0 0.00 0.00 0.00 11 1014.4
20260507232522 76 129 0.9 7.0 0.00 0.00 0.00 12 1014.4
20260507232017 76 135 0.9 8.7 0.00 0.00 0.00 13 1014.5
20260507231536 76 128 1.7 8.7 0.00 0.00 0.00 11 1014.5
20260507231019 76 0 0.9 6.1 0.00 0.00 0.00 11 1014.5
20260507230520 76 0 0.9 7.0 0.00 0.00 0.00 11 1014.5
20260507230035 76 146 2.6 7.8 0.00 0.00 0.00 12 1014.6
20260507225517 76 154 2.6 7.8 0.00 0.00 0.00 11 1014.9
20260507225020 76 161 2.6 7.0 0.00 0.00 0.00 11 1015.0
20260507224534 76 126 0.9 6.1 0.00 0.00 0.00 12 1014.9
20260507224018 76 155 0.9 6.1 0.00 0.00 0.00 11 1015.0
20260507223519 76 0 0.9 9.6 0.00 0.00 0.00 14 1015.1
20260507223038 75 150 2.6 9.6 0.00 0.00 0.00 12 1015.1
20260507222518 75 138 1.7 6.1 0.00 0.00 0.00 12 1015.2
20260507222018 75 147 1.7 7.0 0.00 0.00 0.00 14 1015.2
20260507221535 75 137 2.6 7.0 0.00 0.00 0.00 12 1015.3
20260507221016 76 155 2.6 7.0 0.00 0.00 0.00 12 1015.3
20260507220519 75 0 0.0 7.8 0.00 0.00 0.00 13 1015.3
20260507220039 75 0 1.7 8.7 0.00 0.00 0.00 13 1015.5
20260507215520 75 123 1.7 8.7 0.00 0.00 0.00 13 1015.4
20260507215019 75 0 1.7 7.8 0.00 0.00 0.00 14 1015.6
20260507214539 75 113 1.7 7.8 0.00 0.00 0.00 15 1015.8
20260507214019 75 152 1.7 7.8 0.00 0.00 0.00 13 1015.8
20260507213519 75 119 0.9 7.0 0.00 0.00 0.00 15 1016.0
20260507213041 76 142 0.9 7.0 0.00 0.00 0.00 15 1016.1
20260507212520 76 144 1.7 7.0 0.00 0.00 0.00 14 1016.2
20260507212019 75 248 0.9 4.3 0.00 0.00 0.00 17 1016.3
20260507211546 75 0 0.0 2.6 0.00 0.00 0.00 19 1016.6
20260507211018 75 46 0.0 6.1 0.00 0.00 0.00 20 1016.5
20260507210519 74 0 0.9 7.8 0.00 0.00 0.00 16 1016.7
20260507210050 74 304 0.9 7.8 0.00 0.00 0.00 15 1016.7
20260507205518 74 0 0.0 7.0 0.00 0.00 0.00 21 1016.8
20260507205020 74 134 0.0 7.0 0.00 0.00 0.00 16 1017.0
20260507204543 74 131 1.7 7.0 0.00 0.00 0.00 18 1017.1
20260507204017 74 120 0.9 5.2 0.00 0.00 0.00 20 1017.2
20260507203518 73 0 0.0 4.3 0.00 0.00 0.00 21 1017.3
20260507203037 73 240 0.9 3.5 0.00 0.00 0.00 17 1017.3
20260507202518 73 40 0.9 3.5 0.00 0.00 0.00 18 1017.5
20260507202018 73 78 0.0 6.1 0.00 0.00 0.00 21 1017.5
20260507201533 72 0 0.0 8.7 0.00 0.00 0.00 20 1017.7
20260507201018 72 252 1.7 8.7 0.00 0.00 0.00 18 1017.8
20260507200515 72 112 2.6 7.8 0.00 0.00 0.00 20 1017.7
20260507200048 72 121 0.0 2.6 0.00 0.00 0.00 21 1017.7
20260507195518 71 0 0.0 5.2 0.00 0.00 0.00 22 1017.8
20260507195018 71 9 0.9 5.2 0.00 0.00 0.00 22 1017.9
20260507194547 71 272 0.0 8.7 0.00 0.00 0.00 23 1018.1
20260507194018 70 131 0.9 8.7 0.00 0.00 0.00 22 1018.1
20260507193519 70 135 1.7 7.8 0.00 0.00 0.00 20 1018.2
20260507193035 71 143 0.9 6.1 0.00 0.00 0.00 20 1018.2
20260507192517 70 0 0.9 6.1 0.00 0.00 0.00 21 1018.3
20260507192018 71 118 0.9 6.1 0.00 0.00 0.00 25 1018.4
20260507191539 70 44 0.0 3.5 0.00 0.00 0.00 24 1018.6
20260507191021 70 211 0.0 4.3 0.00 0.00 0.00 23 1018.8
20260507190515 69 0 0.9 6.1 0.00 0.00 0.00 24 1018.9
20260507190045 68 0 0.9 6.1 0.00 0.00 0.00 25 1019.0
20260507185518 67 0 0.0 4.3 0.00 0.00 0.00 26 1019.2
20260507185018 67 231 0.9 4.3 0.00 0.00 0.00 23 1019.3
20260507184543 67 0 0.0 7.0 0.00 0.00 0.00 26 1019.6
20260507184018 67 265 2.6 7.0 0.00 0.00 0.00 22 1019.6
20260507183518 68 127 0.9 5.2 0.00 0.00 0.00 22 1019.7
20260507183032 68 211 0.0 4.3 0.00 0.00 0.00 24 1019.7
20260507182519 68 0 0.9 4.3 0.00 0.00 0.00 24 1019.8
20260507182018 68 141 0.0 3.5 0.00 0.00 0.00 23 1019.9
20260507181534 67 335 0.0 3.5 0.00 0.00 0.00 24 1019.9
20260507181018 67 360 0.0 2.6 0.00 0.00 0.00 28 1020.0
20260507180520 66 0 0.0 4.3 0.00 0.00 0.00 26 1020.1
20260507180103 66 154 0.0 4.3 0.00 0.00 0.00 26 1020.2
20260507175518 66 120 0.0 3.5 0.00 0.00 0.00 27 1020.3
20260507175018 65 0 0.9 3.5 0.00 0.00 0.00 28 1020.3
20260507174538 64 200 0.0 3.5 0.00 0.00 0.00 28 1020.4
20260507174015 64 0 0.9 3.5 0.00 0.00 0.00 31 1020.5
20260507173520 64 122 0.0 4.3 0.00 0.00 0.00 30 1020.6
20260507173044 64 40 0.9 4.3 0.00 0.00 0.00 29 1020.7
20260507172515 64 36 0.0 3.5 0.00 0.00 0.00 29 1020.8
20260507172018 64 0 0.0 5.2 0.00 0.00 0.00 30 1020.9
20260507171534 63 119 0.9 5.2 0.00 0.00 0.00 32 1020.9
20260507171018 62 31 0.0 4.3 0.00 0.00 0.00 30 1021.1
20260507170515 62 55 0.9 7.0 0.00 0.00 0.00 35 1021.2
20260507170035 61 295 0.9 7.0 0.00 0.00 0.00 34 1021.2
20260507165517 61 52 1.7 7.8 0.00 0.00 0.00 32 1021.3
20260507165014 61 59 1.7 7.8 0.00 0.00 0.00 31 1021.3
20260507164544 61 13 0.9 6.1 0.00 0.00 0.00 39 1021.3
20260507164017 60 21 0.9 7.8 0.00 0.00 0.00 38 1021.3
20260507163522 59 58 0.9 7.8 0.00 0.00 0.00 36 1021.5
20260507163037 59 80 2.6 7.0 0.00 0.00 0.00 36 1021.5
20260507162520 59 323 1.7 7.8 0.00 0.00 0.00 38 1021.5
20260507162018 58 68 1.7 7.8 0.00 0.00 0.00 38 1021.6
20260507161549 58 333 1.7 7.8 0.00 0.00 0.00 39 1021.6
20260507161018 57 69 1.7 7.8 0.00 0.00 0.00 41 1021.7
20260507160518 57 11 1.7 7.8 0.00 0.00 0.00 41 1021.8
20260507160036 56 338 2.6 7.8 0.00 0.00 0.00 42 1021.7
20260507155518 56 278 1.7 7.8 0.00 0.00 0.00 43 1021.8
20260507155015 56 41 1.7 7.8 0.00 0.00 0.00 42 1021.9
20260507154534 55 360 1.7 7.8 0.00 0.00 0.00 43 1021.9
20260507154017 55 0 1.7 7.8 0.00 0.00 0.00 45 1021.9
20260507153517 55 25 1.7 7.8 0.00 0.00 0.00 44 1022.0
20260507153039 54 345 1.7 7.8 0.00 0.00 0.00 45 1022.1
20260507152520 54 360 2.6 7.0 0.00 0.00 0.00 45 1022.0
20260507152018 54 233 1.7 7.0 0.00 0.00 0.00 47 1022.0
20260507151536 53 350 1.7 10.4 0.00 0.00 0.00 48 1022.1
20260507151018 53 88 1.7 10.4 0.00 0.00 0.00 48 1022.1
20260507150516 52 27 1.7 8.7 0.00 0.00 0.00 50 1022.2
20260507150038 52 34 2.6 10.4 0.00 0.00 0.00 51 1022.2
20260507145517 51 65 2.6 10.4 0.00 0.00 0.00 52 1022.2
20260507145018 51 38 1.7 8.7 0.00 0.00 0.00 53 1022.2
20260507144536 50 330 3.5 8.7 0.00 0.00 0.00 53 1022.3
20260507144016 50 190 1.7 9.6 0.00 0.00 0.00 54 1022.3
20260507143515 50 326 3.5 9.6 0.00 0.00 0.00 55 1022.2
20260507143040 49 337 2.6 7.8 0.00 0.00 0.00 56 1022.4
20260507142516 49 161 2.6 8.7 0.00 0.00 0.00 57 1022.3
20260507142014 49 40 1.7 9.6 0.00 0.00 0.00 57 1022.3
20260507141533 48 346 2.6 9.6 0.00 0.00 0.00 59 1022.2
20260507141020 48 351 1.7 10.4 0.00 0.00 0.00 58 1022.3
20260507140518 48 295 3.5 10.4 0.00 0.00 0.00 59 1022.2
20260507140042 47 28 1.7 8.7 0.00 0.00 0.00 59 1022.3
20260507135518 47 329 1.7 8.7 0.00 0.00 0.00 59 1022.2
20260507135020 47 333 2.6 8.7 0.00 0.00 0.00 60 1022.3
20260507134535 47 278 2.6 8.7 0.00 0.00 0.00 59 1022.3
20260507134017 46 360 1.7 8.7 0.00 0.00 0.00 60 1022.2
20260507133518 46 360 2.6 8.7 0.00 0.00 0.00 60 1022.2
20260507133035 45 360 2.6 7.8 0.00 0.00 0.00 60 1022.2
20260507132518 45 360 1.7 9.6 0.00 0.00 0.00 62 1022.2
20260507132017 44 360 0.9 9.6 0.00 0.00 0.00 63 1022.2
20260507131539 44 360 2.6 9.6 0.00 0.00 0.00 63 1022.0
20260507131018 44 360 1.7 7.8 0.00 0.00 0.00 64 1022.2
20260507130519 43 360 0.9 7.8 0.00 0.00 0.00 65 1022.1
20260507130039 43 360 1.7 7.0 0.00 0.00 0.00 66 1022.2
20260507125517 43 360 2.6 7.8 0.00 0.00 0.00 66 1022.1
20260507125017 43 360 0.9 7.8 0.00 0.00 0.00 66 1022.2
20260507124538 42 360 0.9 5.2 0.00 0.00 0.00 68 1022.1
20260507124022 42 360 0.9 5.2 0.00 0.00 0.00 68 1022.2
20260507123522 41 0 0.9 5.2 0.00 0.00 0.00 69 1022.1
20260507123032 40 360 0.9 3.5 0.00 0.00 0.00 69 1022.1
20260507122518 40 360 0.9 3.5 0.00 0.00 0.00 69 1022.0
20260507122018 40 0 0.0 0.9 0.00 0.00 0.00 68 1022.0
20260507121536 40 0 0.0 0.9 0.00 0.00 0.00 67 1021.9
20260507121015 40 0 0.0 0.9 0.00 0.00 0.00 66 1021.9
20260507120518 40 0 0.0 0.9 0.00 0.00 0.00 65 1021.8
20260507120032 40 0 0.0 0.9 0.00 0.00 0.00 64 1021.9
20260507115515 40 0 0.0 0.9 0.00 0.00 0.00 63 1021.9
20260507115019 40 0 0.0 2.6 0.00 0.00 0.00 62 1021.9
20260507114554 40 0 0.0 2.6 0.00 0.00 0.00 62 1022.0
20260507114018 39 0 0.0 2.6 0.00 0.00 0.00 63 1021.8
20260507113515 39 0 0.0 0.9 0.00 0.00 0.00 58 1021.8
20260507113058 39 0 0.0 0.9 0.00 0.00 0.00 56 1021.9
20260507112514 40 0 0.0 1.7 0.00 0.00 0.00 55 1022.0
20260507112017 40 0 0.0 2.6 0.00 0.00 0.00 54 1022.0
20260507111541 40 0 0.9 2.6 0.00 0.00 0.00 53 1021.9
20260507111017 40 360 0.0 1.7 0.00 0.00 0.00 52 1021.9
20260507110519 40 0 0.0 0.0 0.00 0.00 0.00 51 1021.9
20260507110037 40 0 0.0 0.9 0.00 0.00 0.00 51 1021.9
20260507105517 41 0 0.0 0.9 0.00 0.00 0.00 50 1021.8
20260507105017 41 0 0.0 1.7 0.00 0.00 0.00 49 1021.9
20260507104540 41 0 0.0 1.7 0.00 0.00 0.00 47 1021.8
20260507104018 41 360 0.0 0.0 0.00 0.00 0.00 46 1021.9
20260507103516 41 0 0.0 0.0 0.00 0.00 0.00 44 1022.0
20260507103032 41 0 0.0 0.0 0.00 0.00 0.00 44 1021.9
20260507102517 41 0 0.0 0.0 0.00 0.00 0.00 44 1021.9
20260507102014 41 0 0.0 0.9 0.00 0.00 0.00 43 1021.7
20260507101534 41 0 0.0 0.9 0.00 0.00 0.00 43 1021.7
20260507101020 42 0 0.0 0.9 0.00 0.00 0.00 42 1021.7
20260507100514 42 0 0.0 0.9 0.00 0.00 0.00 42 1021.7
20260507100030 43 0 0.0 2.6 0.00 0.00 0.00 41 1021.7
20260507095518 43 0 0.0 2.6 0.00 0.00 0.00 41 1021.7
20260507095017 43 0 0.0 0.9 0.00 0.00 0.00 40 1021.7
20260507094535 43 0 0.0 0.9 0.00 0.00 0.00 39 1021.7
20260507094017 44 360 0.0 0.9 0.00 0.00 0.00 38 1021.7
20260507093517 44 0 0.0 0.9 0.00 0.00 0.00 38 1021.6
20260507093035 44 360 0.0 2.6 0.00 0.00 0.00 38 1021.6
20260507092518 44 0 0.0 2.6 0.00 0.00 0.00 38 1021.7
20260507092015 45 360 0.0 2.6 0.00 0.00 0.00 37 1021.7
20260507091537 45 0 0.0 2.6 0.00 0.00 0.00 37 1021.6
20260507091017 45 0 0.0 2.6 0.00 0.00 0.00 37 1021.5
20260507090521 45 360 0.9 2.6 0.00 0.00 0.00 37 1021.5
20260507090033 46 0 0.0 3.5 0.00 0.00 0.00 36 1021.6
20260507085518 46 360 0.9 3.5 0.00 0.00 0.00 36 1021.6
20260507085014 46 360 0.9 2.6 0.00 0.00 0.00 36 1021.5
20260507084543 45 360 0.9 2.6 0.00 0.00 0.00 37 1021.6
20260507084019 45 0 0.0 2.6 0.00 0.00 0.00 37 1021.5
20260507083518 45 0 0.0 2.6 0.00 0.00 0.00 37 1021.4
20260507083036 45 0 0.0 0.9 0.00 0.00 0.00 37 1021.3
20260507082517 46 0 0.0 0.0 0.00 0.00 0.00 37 1021.5
20260507082017 46 0 0.0 0.0 0.00 0.00 0.00 38 1021.5
20260507081540 46 0 0.0 1.7 0.00 0.00 0.00 36 1021.4
20260507081019 47 0 0.0 4.3 0.00 0.00 0.00 36 1021.3
20260507080519 47 0 0.0 4.3 0.00 0.00 0.00 35 1021.3
20260507080033 47 0 0.9 4.3 0.00 0.00 0.00 33 1021.1
20260507075518 47 360 0.9 4.3 0.00 0.00 0.00 33 1021.0
20260507075018 48 63 0.9 6.1 0.00 0.00 0.00 33 1021.0
20260507074538 48 299 0.0 7.8 0.00 0.00 0.00 33 1020.8
20260507074020 48 258 2.6 7.8 0.00 0.00 0.00 32 1020.5
20260507073521 48 242 2.6 6.1 0.00 0.00 0.00 32 1020.5
20260507073035 48 267 2.6 6.1 0.00 0.00 0.00 33 1020.5
20260507072520 48 255 2.6 7.0 0.00 0.00 0.00 33 1020.5
20260507072017 48 240 2.6 7.0 0.00 0.00 0.00 33 1020.3
20260507071535 48 252 0.9 5.2 0.00 0.00 0.00 33 1020.3
20260507071018 48 238 0.9 7.0 0.00 0.00 0.00 32 1020.4
20260507070518 48 255 1.7 7.0 0.00 0.00 0.00 33 1020.4
20260507070035 48 243 2.6 7.0 0.00 0.00 0.00 33 1020.4
20260507065518 48 240 3.5 7.0 0.00 0.00 0.00 33 1020.4
20260507065018 49 250 2.6 8.7 0.00 0.00 0.00 33 1020.5
20260507064539 49 270 2.6 8.7 0.00 0.00 0.00 33 1020.4
20260507064018 49 277 2.6 8.7 0.00 0.00 0.00 33 1020.4
20260507063520 49 273 2.6 8.7 0.00 0.00 0.00 33 1020.4
20260507063035 49 241 2.6 7.0 0.00 0.00 0.00 33 1020.5
20260507062518 49 270 1.7 7.0 0.00 0.00 0.00 33 1020.4
20260507062018 50 269 2.6 7.0 0.00 0.00 0.00 33 1020.3
20260507061538 50 263 2.6 6.1 0.00 0.00 0.00 33 1020.3
20260507061017 50 261 1.7 7.0 0.00 0.00 0.00 34 1020.4
20260507060518 50 252 2.6 7.0 0.00 0.00 0.00 33 1020.3
20260507060036 50 261 1.7 7.0 0.00 0.00 0.00 33 1020.3
20260507055518 50 0 0.9 4.3 0.00 0.00 0.00 34 1020.2
20260507055020 50 269 0.9 3.5 0.00 0.00 0.00 34 1020.1
20260507054538 50 360 0.9 2.6 0.00 0.00 0.00 34 1020.2
20260507054018 51 0 0.0 4.3 0.00 0.00 0.00 35 1020.1
20260507053519 51 0 0.0 7.8 0.00 0.00 0.00 34 1020.1
20260507053034 51 360 0.9 7.8 0.00 0.00 0.00 34 1020.0
20260507052518 52 360 0.9 7.0 0.00 0.00 0.00 34 1020.0
20260507052019 52 360 0.9 7.0 0.00 0.00 0.00 34 1020.0
20260507051537 52 360 1.7 7.0 0.00 0.00 0.00 35 1019.9
20260507051022 53 360 1.7 5.2 0.00 0.00 0.00 35 1019.9
20260507050518 53 360 2.6 5.2 0.00 0.00 0.00 36 1019.9
20260507050041 53 360 1.7 5.2 0.00 0.00 0.00 37 1019.8
20260507045521 53 360 1.7 5.2 0.00 0.00 0.00 38 1019.7
20260507045018 53 360 1.7 4.3 0.00 0.00 0.00 39 1019.7
20260507044539 54 360 0.9 4.3 0.00 0.00 0.00 40 1019.6